SCP
0 0 0 0 0 0 0 0 0 0 0 0 0 0 0 0 0 0 0 0 0 0 0 0 0 0 0 0 0 0 0 0 0 0 0 0 0 0 0 0 0 0 0 0
0 0 0 0 0 0 0 0 0 0 0 0 0 0 0 0 0 0 0 0 0 0 0 0 0 0 0 0 0 0 0 0 0 0 0 0 0 0 0 0 0 0 0 0
0 0 0 0 0 0 0 0 0 0 0 0 0 0 0 0 0 0 0 0 0 0 0 0 0 0 0 0 0 0 0 0 0 0 0 0 0 0 0 0 0 0 0 0
0 0 0 0 0 0 0 0 0 0 0 0 0 0 0 0 0 0 0 0 0 0 0 0 0 0 0 0 0 0 0 0 0 0 0 0 0 0 0 0 0 0 0 0
0 0 0 0 0 0 0 0 0 0 0 0 0 0 0 0 0 0 0 0 0 0 0 0 0 0 0 0 0 0 0 0 0 0 0 0 0 0 0 0 0 0 0 0
0 0 0 0 0 0 0 0 0 0 0 0 0 0 0 0 0 0 0 0 0 0 0 0 0 0 0 0 0 0 0 0 0 0 0 0 0 0 0 0 0 0 0 0
0 0 0 0 0 0 0 0 0 0 0 0 0 0 0 0 0 0 0 0 0 0 0 0 0 0 0 0 0 0 0 0 0 0 0 0 0 0 0 0 0 0 0 0
0 0 0 0 0 0 0 0 0 0 0 0 0 0 0 0 0 0 0 0 0 0 0 0 0 0 0 0 0 0 0 0 0 0 0 0 0 0 0 0 0 0 0 0
0 0 0 0 0 0 0 0 0 0 0 0 0 0 0 0 0 0 0 0 0 0 0 0 0 0 0 0 0 0 0 0 0 0 0 0 0 0 0 0 0 0 0 0
0 0 0 0 0 0 0 0 0 0 0 0 0 0 0 0 0 0 0 0 0 0 0 0 0 0 0 0 0 0 0 0 0 0 0 0 0 0 0 0 0 0 0 0
0 0 0 0 0 0 0 0 0 0 0 0 0 0 0 0 0 0 0 0 0 0 0 0 0 0 0 0 0 0 0 0 0 0 0 0 0 0 0 0 0 0 0 0
0 0 0 0 0 0 0 0 0 0 0 0 0 0 0 0 0 0 0 0 0 0 0 0 0 0 0 0 0 0 0 0 0 0 0 0 0 0 0 0 0 0 0 0
0 0 0 0 0 0 0 0 0 0 0 0 0 0 0 0 0 0 0 0 0 0 0 0 0 0 0 0 0 0 0 0 0 0 0 0 0 0 0 0 0 0 0 0
0 0 0 0 0 0 0 0 0 0 0 0 0 0 0 0 0 0 0 0 0 0 0 0 0 0 0 0 0 0 0 0 0 0 0 0 0 0 0 0 0 0 0 0
0 0 0 0 0 0 0 0 0 0 0 0 0 0 0 0 0 0 0 0 0 0 0 0 0 0 0 0 0 0 0 0 0 0 0 0 0 0 0 0 0 0 0 0
0 0 0 0 0 0 0 0 0 0 0 0 0 0 0 0 0 0 0 0 0 0 0 0 0 0 0 0 0 0 0 0 0 0 0 0 0 0 0 0 0 0 0 0
0 0 0 0 0 0 0 0 0 0 0 0 0 0 0 0 0 0 0 0 0 0 0 0 0 0 0 0 0 0 0 0 0 0 0 0 0 0 0 0 0 0 0 0
0 0 0 0 0 0 0 0 0 0 0 0 0 0 0 0 0 0 0 0 0 0 0 0 0 0 0 0 0 0 0 0 0 0 0 0 0 0 0 0 0 0 0 0
0 0 0 0 0 0 0 0 0 0 0 0 0 0 0 0 0 0 0 0 0 0 0 0 0 0 0 0 0 0 0 0 0 0 0 0 0 0 0 0 0 0 0 0
0 0 0 0 0 0 0 0 0 0 0 0 0 0 0 0 0 0 0 0 0 0 0 0 0 0 0 0 0 0 0 0 0 0 0 0 0 0 0 0 0 0 0 0
0 0 0 0 0 0 0 0 0 0 0 0 0 0 0 0 0 0 0 0 0 0 0 0 0 0 0 0 0 0 0 0 0 0 0 0 0 0 0 0 0 0 0 0
0 0 0 0 0 0 0 0 0 0 0 0 0 0 0 0 0 0 0 0 0 0 0 0 0 0 0 0 0 0 0 0 0 0 0 0 0 0 0 0 0 0 0 0
0 0 0 0 0 0 0 0 0 0 0 0 0 0 0 0 0 0 0 0 0 0 0 0 0 0 0 0 0 0 0 0 0 0 0 0 0 0 0 0 0 0 0 0
0 0 0 0 0 0 0 0 0 0 0 0 0 0 0 0 0 0 0 0 0 0 0 0 0 0 0 0 0 0 0 0 0 0 0 0 0 0 0 0 0 0 0 0
0 0 0 0 0 0 0 0 0 0 0 0 0 0 0 0 0 0 0 0 0 0 0 0 0 0 0 0 0 0 0 0 0 0 0 0 0 0 0 0 0 0 0 0
0 0 0 0 0 0 0 0 0 0 0 0 0 0 0 0 0 0 0 0 0 0 0 0 0 0 0 0 0 0 0 0 0 0 0 0 0 0 0 0 0 0 0 0
0 0 0 0 0 0 0 0 0 0 0 0 0 0 0 0 0 0 0 0 0 0 0 0 0 0 0 0 0 0 0 0 0 0 0 0 0 0 0 0 0 0 0 0
Wind_Speed
6 5 4 7 8 9 11 11 10 10 10 10 7 6 6 5 5 6 6 7 7 8 8 9 10 10 9 9 9 9 9 10 10 10 10 9 9 9 8 8 8 8 7 7
5 4 5 9 10 10 11 11 13 13 12 7 5 4 5 5 5 6 7 7 8 9 9 10 10 10 10 10 10 9 10 10 10 10 10 9 9 9 9 8 8 8 7 7
4 2 5 9 7 9 6 6 7 9 7 3 4 5 6 6 6 7 7 8 9 9 10 10 10 10 10 10 10 10 10 10 10 10 10 10 9 9 9 9 9 9 8 8
3 3 8 0 2 3 5 5 6 6 5 5 6 6 6 5 6 7 8 8 9 9 10 10 10 10 10 10 10 10 10 10 10 10 10 10 10 9 9 8 8 8 8 8
3 5 8 3 3 3 4 5 5 6 6 5 4 5 4 2 4 7 8 8 9 9 10 10 10 10 10 10 10 10 10 11 11 10 11 10 10 10 9 9 9 8 8 8
4 6 7 0 3 2 2 5 3 4 4 3 2 5 4 3 6 7 8 8 8 9 9 9 10 9 10 10 10 11 11 11 11 10 11 10 10 10 9 8 9 8 8 8
7 8 7 1 3 4 4 2 2 3 4 4 4 6 6 6 7 8 8 8 8 8 8 9 9 9 10 10 10 11 12 11 11 10 10 10 10 9 9 8 8 8 8 7
6 8 7 5 6 6 2 1 2 3 4 5 6 6 7 7 8 8 8 8 8 8 8 9 9 9 10 11 11 11 12 11 10 10 9 8 9 9 8 8 8 7 7 7
7 5 1 5 5 2 1 2 2 3 4 4 6 6 7 7 8 8 8 8 8 8 9 9 9 9 10 11 12 12 12 11 10 10 9 9 8 8 8 7 6 6 6 6
6 7 4 5 5 4 3 4 4 4 4 4 6 7 7 7 8 8 8 8 8 8 9 10 10 10 10 11 11 11 12 11 10 10 9 8 7 6 6 6 6 6 6 6
7 5 4 5 6 5 4 4 4 4 4 5 6 7 7 7 7 7 7 7 7 8 9 10 11 11 11 11 11 11 11 10 10 9 9 8 7 6 7 7 7 8 7 6
5 3 4 3 2 3 3 4 3 4 4 4 5 6 7 6 6 6 7 7 7 8 9 10 10 11 11 10 10 10 10 9 8 8 7 7 7 7 9 9 11 12 11 10
3 1 2 2 2 2 3 3 3 3 4 5 5 5 5 6 6 6 7 7 8 9 9 10 10 11 10 10 10 9 10 9 8 8 7 7 7 8 8 8 10 11 11 11
3 2 3 3 2 1 2 2 2 2 3 4 4 4 5 5 6 6 7 7 8 8 9 9 10 10 10 10 10 10 10 10 9 7 7 7 7 7 7 7 8 7 8 10
3 4 3 1 1 1 1 1 2 3 3 4 4 4 5 6 7 7 7 7 7 8 9 9 10 10 10 10 9 10 9 7 7 7 7 7 7 7 7 7 7 7 6 7
2 2 2 2 3 2 2 2 3 4 4 4 5 5 6 6 7 7 7 7 7 9 9 9 10 10 10 10 10 8 7 11 10 8 7 7 7 6 6 6 6 6 6 6
3 2 3 3 3 3 3 3 4 4 4 5 5 6 6 6 6 7 7 7 8 9 9 9 10 10 10 9 9 7 7 8 11 8 7 7 6 6 6 6 6 6 6 6
3 3 3 3 3 3 3 3 4 4 5 5 5 5 5 6 7 8 8 8 8 9 8 8 9 10 9 9 8 7 7 7 7 7 7 6 6 6 6 6 6 7 6 6
2 2 2 2 2 2 3 3 4 4 4 4 5 5 6 6 7 7 7 8 8 9 8 9 13 10 9 10 10 6 7 7 7 7 6 8 7 6 6 6 6 6 6 5
1 1 1 1 1 2 3 3 3 4 4 4 4 5 6 6 6 6 7 7 6 6 9 10 10 9 9 9 10 6 7 7 7 7 6 6 6 6 6 6 6 6 5 5
1 1 1 1 2 2 3 3 3 4 4 4 4 5 6 6 6 6 6 7 6 8 9 11 8 8 8 9 9 6 6 6 6 6 6 6 6 6 6 6 6 6 5 5
2 1 1 1 2 2 2 2 3 3 4 4 4 5 5 6 6 6 6 6 7 11 9 7 7 10 11 10 6 6 6 6 6 5 5 5 6 6 6 6 6 5 5 5
2 1 1 1 2 2 3 2 3 3 4 4 5 5 5 6 5 5 6 5 6 11 9 7 10 15 15 8 6 6 6 6 6 5 5 5 5 5 6 6 5 5 5 5
1 1 1 1 1 1 2 3 3 3 4 4 4 4 5 5 5 4 5 9 11 12 7 10 14 15 12 6 6 6 6 6 6 5 5 5 5 5 5 5 5 5 5 6
1 1 1 1 1 2 3 3 3 4 4 4 5 5 4 4 5 5 6 7 10 11 7 9 13 13 8 6 6 6 6 6 6 6 5 5 5 5 5 5 5 5 5 5
1 1 1 2 2 2 2 2 3 3 3 4 4 4 4 4 5 5 5 6 8 9 7 6 7 8 6 6 6 6 6 6 6 6 5 5 6 5 5 5 6 5 5 5
0 1 1 1 1 2 2 2 3 3 4 4 5 5 5 5 5 5 6 6 6 6 6 6 6 6 6 6 6 6 6 6 6 6 6 5 5 5 5 6 5 5 5 5
Wind_Direction
269 277 255 254 251 231 227 240 254 268 271 285 292 291 294 296 303 309 317 323 324 325 325 324 324 322 319 318 319 319 316 313 311 312 310 309 308 308 308 308 305 302 295 286
262 244 260 265 257 245 243 247 253 265 275 294 299 283 286 295 305 308 314 317 320 321 322 321 321 320 318 316 317 317 313 310 310 309 308 307 308 308 308 307 305 303 295 286
260 297 284 260 242 222 220 227 239 254 275 307 293 292 295 299 301 304 309 313 315 317 317 318 318 317 315 314 314 313 310 309 308 308 307 306 306 305 304 304 304 303 296 288
276 276 247 283 79 205 221 241 238 256 277 283 290 297 292 289 293 302 307 310 312 313 314 315 316 315 313 313 313 312 310 310 311 309 307 306 304 302 303 301 299 299 297 289
234 258 270 256 189 190 224 263 236 243 266 287 310 296 274 295 305 304 305 305 306 308 309 311 313 315 313 313 314 312 311 311 311 309 306 303 301 300 300 299 297 297 295 293
216 247 259 129 117 141 211 260 189 212 246 274 299 289 310 334 318 309 307 305 307 308 309 311 315 316 314 314 314 313 312 310 309 307 303 299 297 297 297 295 294 295 295 293
228 245 264 111 149 175 228 297 140 210 235 244 254 277 307 309 307 307 307 308 309 308 309 311 316 315 312 313 313 312 310 308 307 306 303 301 298 296 295 293 291 291 293 294
207 227 247 139 160 204 248 65 205 236 247 257 270 286 294 298 303 307 309 311 313 310 310 314 317 316 312 312 313 313 310 309 309 308 306 303 301 299 296 292 289 291 294 297
210 229 22 172 202 224 192 224 245 255 261 264 274 284 292 296 300 304 307 309 311 310 310 315 319 317 312 312 314 313 311 310 310 308 306 303 301 300 298 294 289 291 292 295
245 251 239 229 238 239 235 250 265 267 270 267 271 282 290 295 300 304 307 309 312 312 313 317 321 319 313 313 314 313 311 312 310 309 308 308 304 300 298 296 294 293 293 294
244 261 269 238 226 233 243 252 264 271 269 267 272 280 286 292 298 304 307 309 310 310 310 313 318 317 317 318 317 314 312 312 310 308 306 307 304 300 297 291 296 295 292 292
238 222 224 249 219 211 229 246 256 266 275 276 272 277 287 291 297 301 304 308 309 309 310 312 314 315 317 319 317 314 312 313 311 309 308 307 307 306 302 297 302 301 301 299
252 279 249 272 256 232 238 254 262 259 265 280 285 283 286 291 297 301 302 305 306 306 307 309 311 313 316 318 315 312 308 309 307 307 307 308 308 308 310 310 305 304 304 304
226 223 241 235 246 253 254 264 267 270 275 279 286 290 290 293 296 298 300 303 303 304 305 308 309 311 316 316 314 311 308 306 306 304 306 306 305 304 303 306 310 312 310 307
223 225 235 253 257 260 259 252 262 275 289 295 294 292 294 295 295 297 300 303 303 302 305 308 308 311 317 316 314 311 310 310 310 308 306 305 304 303 302 303 304 306 310 313
208 208 213 230 252 266 263 260 266 278 289 292 294 294 294 291 292 294 299 304 303 305 308 308 307 311 315 315 314 311 309 313 314 311 309 309 309 308 308 306 304 305 308 314
186 209 218 239 253 264 265 265 267 277 283 284 289 295 296 296 296 298 303 305 300 298 300 302 305 310 313 314 312 310 310 311 315 312 311 312 310 309 310 311 311 310 308 312
221 229 226 235 244 256 269 275 275 279 280 284 292 292 291 293 297 302 305 307 305 303 304 307 309 313 314 314 312 310 310 310 312 312 311 311 310 308 308 308 309 309 311 316
217 224 231 241 246 247 260 271 277 281 285 287 288 288 289 290 294 299 302 304 305 309 317 319 319 319 315 315 316 308 309 310 310 311 310 312 313 310 309 307 308 309 312 315
196 206 223 253 267 254 264 276 283 286 288 289 289 291 295 298 301 302 301 296 296 303 309 313 315 314 314 314 316 307 307 308 310 312 313 313 314 312 310 311 312 312 312 312
203 209 232 261 284 283 276 279 280 287 295 291 287 291 296 301 303 302 301 302 310 314 312 314 317 314 314 316 315 311 312 312 311 311 313 314 315 315 313 312 312 313 314 315
208 217 242 260 276 296 301 294 285 288 296 298 296 297 300 303 307 302 290 290 306 315 316 312 313 315 320 321 317 316 315 314 311 310 310 310 312 313 315 317 315 315 315 315
215 223 241 256 272 293 304 300 293 292 294 297 298 300 302 302 302 302 306 310 312 315 317 313 317 321 326 328 321 318 315 314 312 311 309 309 309 309 311 313 313 314 313 313
213 230 257 279 279 283 299 308 306 301 296 294 293 295 300 302 299 292 296 308 316 318 316 317 324 328 332 328 320 316 313 312 311 309 308 307 307 308 309 309 310 311 311 311
211 230 241 257 273 285 296 304 307 308 309 306 308 308 304 297 296 304 307 308 315 320 317 320 326 329 330 320 318 316 313 311 310 310 309 310 309 308 306 307 307 307 307 306
219 242 253 259 271 286 295 299 302 307 311 310 312 313 312 308 303 304 305 309 312 317 318 315 317 321 319 316 314 313 312 313 315 316 313 310 309 308 306 308 308 305 304 304
264 268 267 281 295 297 293 291 294 300 305 306 307 309 312 313 311 312 312 312 314 315 314 313 314 314 313 313 312 311 309 309 309 308 308 307 306 304 304 304 303 302 301 300